• en France
  • Liste des pays
  • À 7 jours
  • Température de l'eau
  • Carte satellitaire
  • Carte météo
  • Widgets météo
  • user-avatar
    Se connecter

    Météo par heure à A'ali

    Ce jour, 20 Août, Lundi

    Heure Température Précipitation Vent Pression Humidité
    00:00 +37°C° 0 mm 3 m/s 747 mmHg 31%
    01:00 +37°C° 0 mm 4 m/s 747 mmHg 30%
    02:00 +37°C° 0 mm 4 m/s 747 mmHg 29%
    03:00 +37°C° 0 mm 5 m/s 747 mmHg 24%
    04:00 +37°C° 0 mm 5 m/s 747 mmHg 25%
    05:00 +37°C° 0 mm 5 m/s 747 mmHg 25%
    06:00 +38°C° 0 mm 6 m/s 748 mmHg 25%
    07:00 +40°C° 0 mm 6 m/s 748 mmHg 22%
    08:00 +42°C° 0 mm 6 m/s 748 mmHg 19%
    09:00 +45°C° 0 mm 7 m/s 748 mmHg 15%
    10:00 +46°C° 0 mm 6 m/s 748 mmHg 16%
    11:00 +46°C° 0 mm 6 m/s 748 mmHg 16%
    12:00 +47°C° 0 mm 6 m/s 748 mmHg 16%
    13:00 +47°C° 0 mm 7 m/s 748 mmHg 17%
    14:00 +47°C° 0 mm 7 m/s 748 mmHg 18%
    15:00 +46°C° 0 mm 7 m/s 748 mmHg 19%
    16:00 +45°C° 0 mm 7 m/s 748 mmHg 21%
    17:00 +44°C° 0 mm 6 m/s 747 mmHg 24%
    18:00 +41°C° 0 mm 6 m/s 747 mmHg 26%
    19:00 +40°C° 0 mm 4 m/s 747 mmHg 27%
    20:00 +38°C° 0 mm 3 m/s 748 mmHg 28%
    21:00 +37°C° 0 mm 2 m/s 748 mmHg 29%
    22:00 +37°C° 0 mm 2 m/s 747 mmHg 28%
    23:00 +37°C° 0 mm 3 m/s 747 mmHg 26%

    Demain, 21 Août, Mardi

    Heure Température Précipitation Vent Pression Humidité
    00:00 +37°C° 0 mm 3 m/s 747 mmHg 25%
    01:00 +37°C° 0 mm 3 m/s 747 mmHg 26%
    02:00 +37°C° 0 mm 4 m/s 747 mmHg 26%
    03:00 +36°C° 0 mm 4 m/s 747 mmHg 27%
    04:00 +36°C° 0 mm 4 m/s 747 mmHg 27%
    05:00 +36°C° 0 mm 4 m/s 747 mmHg 26%
    06:00 +36°C° 0 mm 4 m/s 747 mmHg 26%
    07:00 +38°C° 0 mm 4 m/s 748 mmHg 24%
    08:00 +41°C° 0 mm 5 m/s 748 mmHg 23%
    09:00 +42°C° 0 mm 5 m/s 748 mmHg 21%
    10:00 +43°C° 0 mm 5 m/s 748 mmHg 23%
    11:00 +45°C° 0 mm 5 m/s 748 mmHg 25%
    12:00 +46°C° 0 mm 5 m/s 748 mmHg 26%
    13:00 +46°C° 0 mm 5 m/s 747 mmHg 27%
    14:00 +45°C° 0 mm 5 m/s 747 mmHg 27%
    15:00 +45°C° 0 mm 6 m/s 746 mmHg 28%
    16:00 +43°C° 0 mm 5 m/s 746 mmHg 31%
    17:00 +42°C° 0 mm 5 m/s 746 mmHg 35%
    18:00 +41°C° 0 mm 5 m/s 746 mmHg 38%
    19:00 +40°C° 0 mm 4 m/s 747 mmHg 40%
    20:00 +38°C° 0 mm 3 m/s 747 mmHg 42%
    21:00 +37°C° 0 mm 2 m/s 747 mmHg 44%
    22:00 +37°C° 0 mm 2 m/s 747 mmHg 43%
    23:00 +35°C° 0 mm 1 m/s 747 mmHg 43%

    Après-demain, 22 Août, Mercredi

    Heure Température Précipitation Vent Pression Humidité
    00:00 +33°C° 0 mm 0 m/s 747 mmHg 42%
    01:00 +35°C° 0 mm 1 m/s 747 mmHg 39%
    02:00 +36°C° 0 mm 2 m/s 746 mmHg 36%
    03:00 +37°C° 0 mm 3 m/s 746 mmHg 33%
    04:00 +37°C° 0 mm 3 m/s 746 mmHg 32%
    05:00 +37°C° 0 mm 3 m/s 747 mmHg 30%
    06:00 +37°C° 0 mm 3 m/s 747 mmHg 29%
    07:00 +38°C° 0 mm 3 m/s 747 mmHg 27%
    08:00 +41°C° 0 mm 4 m/s 747 mmHg 24%
    09:00 +43°C° 0 mm 4 m/s 748 mmHg 22%
    10:00 +44°C° 0 mm 4 m/s 748 mmHg 23%
    11:00 +44°C° 0 mm 4 m/s 747 mmHg 25%
    12:00 +46°C° 0 mm 5 m/s 747 mmHg 27%
    13:00 +46°C° 0 mm 5 m/s 747 mmHg 28%
    14:00 +46°C° 0 mm 5 m/s 746 mmHg 29%
    15:00 +46°C° 0 mm 5 m/s 746 mmHg 30%
    16:00 +43°C° 0 mm 5 m/s 746 mmHg 34%
    17:00 +42°C° 0 mm 4 m/s 746 mmHg 39%
    18:00 +40°C° 0 mm 4 m/s 746 mmHg 43%
    19:00 +39°C° 0 mm 3 m/s 746 mmHg 45%
    20:00 +38°C° 0 mm 3 m/s 747 mmHg 47%
    21:00 +37°C° 0 mm 2 m/s 747 mmHg 49%
    22:00 +37°C° 0 mm 2 m/s 747 mmHg 47%
    23:00 +37°C° 0 mm 2 m/s 747 mmHg 44%

    23 Août, Jeudi

    Heure Température Précipitation Vent Pression Humidité
    00:00 +35°C° 0 mm 1 m/s 746 mmHg 42%
    01:00 +37°C° 0 mm 2 m/s 746 mmHg 39%
    02:00 +37°C° 0 mm 2 m/s 746 mmHg 36%
    03:00 +37°C° 0 mm 3 m/s 746 mmHg 34%
    04:00 +37°C° 0 mm 3 m/s 746 mmHg 32%
    05:00 +37°C° 0 mm 4 m/s 746 mmHg 30%
    06:00 +37°C° 0 mm 4 m/s 747 mmHg 28%
    07:00 +40°C° 0 mm 5 m/s 747 mmHg 27%
    08:00 +42°C° 0 mm 6 m/s 747 mmHg 27%
    09:00 +45°C° 0 mm 6 m/s 748 mmHg 26%
    10:00 +45°C° 0 mm 6 m/s 747 mmHg 25%
    11:00 +46°C° 0 mm 6 m/s 747 mmHg 25%
    12:00 +47°C° 0 mm 6 m/s 747 mmHg 24%
    13:00 +46°C° 0 mm 7 m/s 746 mmHg 25%
    14:00 +46°C° 0 mm 7 m/s 746 mmHg 27%
    15:00 +46°C° 0 mm 7 m/s 746 mmHg 28%
    16:00 +44°C° 0 mm 6 m/s 746 mmHg 32%
    17:00 +42°C° 0 mm 5 m/s 746 mmHg 36%
    18:00 +41°C° 0 mm 5 m/s 746 mmHg 39%
    19:00 +40°C° 0 mm 4 m/s 747 mmHg 40%
    20:00 +38°C° 0 mm 3 m/s 747 mmHg 42%
    21:00 +38°C° 0 mm 3 m/s 748 mmHg 43%
    22:00 +38°C° 0 mm 3 m/s 747 mmHg 42%
    23:00 +38°C° 0 mm 3 m/s 747 mmHg 41%

    24 Août, Vendredi

    Heure Température Précipitation Vent Pression Humidité
    00:00 +38°C° 0 mm 3 m/s 747 mmHg 40%
    01:00 +37°C° 0 mm 3 m/s 747 mmHg 41%
    02:00 +37°C° 0 mm 4 m/s 747 mmHg 42%
    03:00 +37°C° 0 mm 4 m/s 746 mmHg 43%
    04:00 +37°C° 0 mm 4 m/s 747 mmHg 45%
    05:00 +37°C° 0 mm 5 m/s 747 mmHg 48%
    06:00 +37°C° 0 mm 5 m/s 748 mmHg 50%
    07:00 +40°C° 0 mm 5 m/s 748 mmHg 42%
    08:00 +42°C° 0 mm 5 m/s 748 mmHg 35%
    09:00 +45°C° 0 mm 6 m/s 748 mmHg 28%
    10:00 +46°C° 0 mm 6 m/s 748 mmHg 26%
    11:00 +46°C° 0 mm 6 m/s 748 mmHg 24%
    12:00 +47°C° 0 mm 6 m/s 748 mmHg 23%
    13:00 +46°C° 0 mm 7 m/s 748 mmHg 23%
    14:00 +46°C° 0 mm 7 m/s 747 mmHg 23%
    15:00 +46°C° 0 mm 7 m/s 747 mmHg 23%
    16:00 +45°C° 0 mm 7 m/s 747 mmHg 26%
    17:00 +44°C° 0 mm 6 m/s 747 mmHg 29%
    18:00 +41°C° 0 mm 5 m/s 747 mmHg 32%
    19:00 +41°C° 0 mm 4 m/s 747 mmHg 35%
    20:00 +40°C° 0 mm 4 m/s 748 mmHg 38%
    21:00 +38°C° 0 mm 3 m/s 748 mmHg 41%
    22:00 +38°C° 0 mm 3 m/s 747 mmHg 39%
    23:00 +38°C° 0 mm 3 m/s 747 mmHg 38%

    25 Août, Samedi

    Heure Température Précipitation Vent Pression Humidité
    00:00 +38°C° 0 mm 4 m/s 747 mmHg 37%
    01:00 +38°C° 0 mm 4 m/s 747 mmHg 40%
    02:00 +37°C° 0 mm 4 m/s 746 mmHg 43%
    03:00 +37°C° 0 mm 4 m/s 746 mmHg 46%
    04:00 +37°C° 0 mm 4 m/s 747 mmHg 47%
    05:00 +37°C° 0 mm 4 m/s 747 mmHg 49%
    06:00 +37°C° 0 mm 4 m/s 747 mmHg 51%
    07:00 +40°C° 0 mm 4 m/s 748 mmHg 43%
    08:00 +42°C° 0 mm 5 m/s 748 mmHg 36%
    09:00 +45°C° 0 mm 5 m/s 748 mmHg 29%
    10:00 +46°C° 0 mm 5 m/s 748 mmHg 25%
    11:00 +47°C° 0 mm 6 m/s 747 mmHg 21%
    12:00 +48°C° 0 mm 6 m/s 747 mmHg 17%
    13:00 +49°C° 0 mm 7 m/s 747 mmHg 18%
    14:00 +47°C° 0 mm 7 m/s 746 mmHg 19%
    15:00 +47°C° 0 mm 7 m/s 746 mmHg 20%
    16:00 +45°C° 0 mm 7 m/s 746 mmHg 24%
    17:00 +44°C° 0 mm 6 m/s 746 mmHg 28%
    18:00 +41°C° 0 mm 6 m/s 746 mmHg 31%
    19:00 +41°C° 0 mm 5 m/s 746 mmHg 33%
    20:00 +40°C° 0 mm 4 m/s 747 mmHg 36%
    21:00 +38°C° 0 mm 3 m/s 747 mmHg 38%
    22:00 +38°C° 0 mm 2 m/s 747 mmHg 36%
    23:00 +37°C° 0 mm 2 m/s 746 mmHg 35%
    Voir plus